Regional Weather Roundup
Issued by NWS

Home | Current Version | Previous Version | Text Only | Print | Product List | Glossary On
Versions: 1 2 3 4 5 6 7 8 9 10 11 12 13 14 15 16 17 18 19 20 21 22 23 24 25 26 27 28 29 30 31 32 33 34 35 36 37 38 39 40 41 42 43 44 45 46 47 48 49 50
000
ASUS43 KMPX 200810
RWRMN
WEATHER ROUNDUP FOR MINNESOTA
NATIONAL WEATHER SERVICE TWIN CITIES/CHANHASSEN MN
300 AM CDT SAT SEP 20 2014


NOTE: "FAIR" INDICATES FEW OR NO CLOUDS BELOW 12,000 FEET WITH NO
SIGNIFICANT WEATHER AND/OR OBSTRUCTIONS TO VISIBILITY. N/A MEANS
CURRENT SKY AND/OR WEATHER CONDITIONS ARE NOT AVAILABLE.

MNZ060>063-068>070-200900-
   Twin Cities Metro

CITY           SKY/WX    TMP DP  RH WIND       PRES   REMARKS
TWIN CITIES    CLOUDY    70  65  84 SW10      29.69R
ST PAUL        CLOUDY    69  66  90 E3        29.69R
CRYSTAL        CLOUDY    71  66  84 SW7       29.67R
BLAINE         CLOUDY    72  70  94 S10       29.68R
LAKEVILLE      CLOUDY    66  63  88 SW6       29.70S
EDEN PRAIRIE   CLOUDY    69  66  90 SW10      29.69R
SOUTH ST PAUL  CLOUDY    70  64  81 SW10      29.68F
LAKE ELMO      FAIR      70  66  88 SW9       29.69S
$$
MNZ001>005-007-008-013>017-022>024-027-028-200900-
   Northwest Minnesota

CITY           SKY/WX    TMP DP  RH WIND       PRES   REMARKS
BEMIDJI        CLOUDY    58  56  91 NW17      29.67R
HALLOCK        CLOUDY    55  54  94 NW7       29.72S
ROSEAU         CLOUDY    55  50  82 NW20      29.69R
WARROAD        CLOUDY    54  48  82 NW14G20   29.68R
THIEF RVR FALL MOCLDY    57  54  88 NW9       29.72R
CROOKSTON      CLOUDY    57  55  94 N14       29.74
FOSSTON        CLEAR     55  52  88 NW7       29.72R
DETROIT LAKES  CLOUDY    59  57  94 NW8       29.73S FOG
MOORHEAD       CLEAR     57  57 100 NW6       29.74R
PARK RAPIDS    CLOUDY    61  58  90 NW12      29.69R
MAHNOMEN       CLOUDY    58  56  92 NW13      29.72R
$$
MNZ006-009>011-018-025>026-200900-
   North Central Minnesota

CITY           SKY/WX    TMP DP  RH WIND       PRES   REMARKS
BAUDETTE       CLOUDY    56  53  90 NW10      29.64R
FLAG ISLAND    CLOUDY    54  52  94 NW24      29.65R
INTL FALLS     FOG       59  59 100 NW8       29.58R VSB 1
WASKISH        MOCLDY    57  55  94 CALM      29.65R
BIG FORK       PTCLDY    61  57  88 NW3       29.62R
LONGVILLE      CLOUDY    63  61  94 NW8       29.65R
GRAND RAPIDS   CLOUDY    64  61  88 W14       29.62R
CRANE LAKE     CLOUDY    61  61 100 SW3       29.58R FOG
ORR            CLOUDY    63  59  88 W9        29.56R
COOK           CLOUDY    63  63 100 SW6       29.59R FOG
WALKER         CLOUDY    60  57  91 NW8       29.66R
$$
MNZ012-019>021-037-200900-
   Northeast Minnesota

CITY           SKY/WX    TMP DP  RH WIND       PRES   REMARKS
DULUTH         FOG       62  60  93 W8        29.59F VSB 1/2
ELY            CLOUDY    61  61 100 CALM      29.57S FOG
HIBBING        CLOUDY    65  62  90 SW5       29.60R FOG
EVELETH        CLOUDY    63  61  94 SW6       29.60S FOG
DULUTH HARBOR  FOG       59  57  94 CALM      29.59F VSB 3/4
TWO HARBORS    CLOUDY    61  55  82 SW5       29.56F HAZE
SILVER BAY     CLOUDY    61  61 100 CALM      29.56F FOG
GRAND MARAIS     N/A     55  54  96 VRB3      29.57F
G MARAIS ARPRT CLOUDY    57  55  94 S7        29.61R FOG
$$
MNZ029>031-032-039>041-046>048-054>057-064-200900-
   West Central Minnesota

CITY           SKY/WX    TMP DP  RH WIND       PRES   REMARKS
FERGUS FALLS   PTCLDY    59  55  88 N12G21    29.74R
WHEATON        CLEAR     61  55  82 NW13      29.76R
MORRIS         CLEAR     57  54  88 NW5       29.74R
ALEXANDRIA     CLEAR     60  55  83 W6        29.73R
ELBOW LAKE     FAIR      59  57  93 NW9       29.73R
WADENA         CLOUDY    61  57  88 W7        29.71R
GLENWOOD       CLEAR     59  55  88 W6        29.73S
APPLETON       CLEAR     63  55  77 W5        29.75R
BENSON         CLEAR     61  55  82 NW7       29.74R
ORTONVILLE     PTCLDY    64  55  72 NW8       29.75R
MADISON        PTCLDY    64  57  77 NW6       29.76R
WILLMAR        FAIR      64  57  77 W8        29.74R
$$
MNZ033>034-036-042>043-049>051-058-059-200900-
   Central Minnesota

CITY           SKY/WX    TMP DP  RH WIND       PRES   REMARKS
ST CLOUD       CLOUDY    67  61  81 W9        29.67R
SAUK CENTRE    FAIR      60  56  88 W5        29.71R
PAYNESVILLE    PTCLDY    59  58  96 SW6       29.72R
AITKIN         MOCLDY    64  59  82 SW5       29.63R
PINE RIVER     PTCLDY    63  59  88 NW5       29.70R
BRAINERD       MOCLDY    61  60  97 W8        29.67R
STAPLES        PTCLDY    61  57  88 W9        29.69R
LONG PRAIRIE   FAIR      61  55  82 SW6       29.71R
LITTLE FALLS   MOCLDY    61  59  94 W5        29.68R
LITCHFIELD     MOCLDY    68  63  83 W7        29.71R
BUFFALO        CLOUDY    65  63  90 SW6       29.69R
MAPLE LAKE     CLOUDY    69  63  82 W6        29.69R
$$
MNZ037-044-045-052-053-200900-
   East Central Minnesota

CITY           SKY/WX    TMP DP  RH WIND       PRES   REMARKS
PRINCETON      CLOUDY    64  63  94 SW5       29.66R
MORA           CLOUDY    59  59 100 SW3       29.65S FOG
CAMBRIDGE      CLOUDY    66  57  72 CALM      29.64R
RUSH CITY      CLOUDY    64  63  95 CALM      29.64F
MOOSE LAKE     FOG       59  59 100 SW5       29.59F VSB 1
HINCKLEY       FAIR      61  61 100 SW5       29.63S FOG
CLOQUET        FOG       61  59  94 W6        29.60F VSB 1/2
MCGREGOR       CLOUDY    61  59  94 W5        29.63R
$$
MNZ071>073-080-081-089-090-097-098-200900-
   Southwest Minnesota

CITY           SKY/WX    TMP DP  RH WIND       PRES   REMARKS
MONTEVIDEO     CLEAR     64  57  77 NW7       29.76R
GRANITE FALLS  CLEAR     60  58  93 W7        29.76R
CANBY          PTCLDY    65  56  72 NW7       29.78R
MARSHALL       CLEAR     63  55  77 W8        29.75R
REDWOOD FALLS  PTCLDY    66  60  81 NW9       29.72R
OLIVIA         PTCLDY    63  59  88 W7        29.72R
PIPESTONE      PTCLDY    66  59  77 NW6       29.79R
WINDOM         MOCLDY    66  63  88 W5        29.77S
WORTHINGTON    MOCLDY    66  64  94 SW6       29.78S
JACKSON        CLOUDY    66  63  88 SW8       29.77F
TRACY          PTCLDY    68  60  75 CALM      29.76S
SLAYTON        PTCLDY    63  60  91 CALM      29.79S
$$
MNZ065>067-074>077-082>085-091>093-200900-
   South Central Minnesota

CITY           SKY/WX    TMP DP  RH WIND       PRES   REMARKS
MANKATO        CLOUDY    66  61  82 S8        29.73S
NEW ULM        MOCLDY    64  64 100 SW5       29.73R
ST JAMES       CLOUDY    68  64  88 SW8       29.74S
FAIRMONT       CLOUDY    64  55  72 S10       29.77R
GLENCOE        MOCLDY    69  64  84 CALM      29.70R
FARIBAULT      CLOUDY    70  63  78 S6        29.72F
OWATONNA       CLOUDY    66  63  88 S9        29.74S
WASECA         CLOUDY    63  59  88 S8        29.76S
ALBERT LEA     CLOUDY    66  64  94 S7        29.78R
$$
MNZ078>079-086>088-094>096-200900-
   Southeast Minnesota

CITY           SKY/WX    TMP DP  RH WIND       PRES   REMARKS
ROCHESTER      CLOUDY    64  61  90 S14       29.76F
RED WING       CLOUDY    70  63  78 SW7       29.69F
STANTON        CLOUDY    69  63  81 SW9       29.69F
DODGE CENTER   CLOUDY    66  63  88 SW16      29.75F
WINONA         DRIZZLE   70  64  83 SW8G21    29.71F
AUSTIN         CLOUDY    64  61  88 S8        29.72F
PRESTON        LGT RAIN  63  64 100 S13       29.77F
$$
ABBREVIATIONS USED IN REMARKS
   TC - TEMPERATURES IN CELSIUS
  WCI - WIND CHILL INDEX
   HX - HEAT INDEX
  VSB - VISIBILITY
$$



USA.gov is the U.S. government's official web portal to all federal, state and local government web resources and services.